Location: Cardiff
(53.7833°N, 113.6000°W)
Time: 07:12:34
(UTC+00:00)

RS-15 - Pass Details

Date: 11 December 2023
Orbit: 1893 x 2151 km, 64.8° (Epoch: 21 February)

Event Time Altitude Azimuth Distance (km) Brightness Sun altitude
Rises 05:04:25 0° 242° (WSW) 5,642 10.7 -49.1°
Reaches altitude 10° 05:07:57 10° 246° (WSW) 4,621 10.2 -49.6°
Enters shadow 05:16:07 48° 268° (W) 2,587 8.6 -50.5°
